QPF
0.09 0.08 0.09 0.12 0.14 0.15 0.12 0.14 0.16 0.13 0.13 0.11 0.09 0.06 0.04 0.03 0.02 0.02 0.02 0.03 0.04 0.06 0.10 0.15 0.14 0.10 0.11 0.09 0.04 0.03 0.02 0.03 0.02 0.02 0.02 0.02 0.01 0.00 0.01 0.01 0.01 0.01 0.01
0.09 0.11 0.11 0.13 0.15 0.13 0.12 0.13 0.15 0.14 0.13 0.12 0.10 0.09 0.06 0.05 0.03 0.02 0.02 0.04 0.04 0.05 0.07 0.14 0.16 0.15 0.14 0.13 0.10 0.06 0.04 0.03 0.03 0.03 0.02 0.02 0.02 0.01 0.01 0.01 0.01 0.01 0.01
0.08 0.09 0.11 0.11 0.10 0.09 0.10 0.10 0.10 0.11 0.11 0.11 0.12 0.11 0.07 0.06 0.04 0.04 0.04 0.04 0.04 0.03 0.05 0.09 0.14 0.18 0.17 0.15 0.15 0.11 0.07 0.06 0.04 0.03 0.02 0.02 0.02 0.02 0.01 0.01 0.01 0.01 0.01
0.06 0.07 0.08 0.08 0.07 0.06 0.06 0.06 0.08 0.09 0.10 0.12 0.12 0.11 0.09 0.08 0.07 0.06 0.05 0.04 0.05 0.04 0.05 0.07 0.12 0.15 0.16 0.17 0.18 0.16 0.12 0.08 0.05 0.03 0.03 0.02 0.02 0.01 0.01 0.01 0.01 0.00 0.00
0.05 0.06 0.07 0.07 0.06 0.06 0.06 0.05 0.05 0.06 0.07 0.07 0.07 0.08 0.09 0.07 0.06 0.05 0.05 0.05 0.06 0.06 0.06 0.07 0.09 0.13 0.15 0.19 0.23 0.23 0.19 0.15 0.10 0.06 0.04 0.02 0.02 0.01 0.01 0.01 0.01 0.00 0.00
0.03 0.04 0.04 0.05 0.05 0.05 0.05 0.05 0.05 0.04 0.04 0.05 0.04 0.04 0.05 0.05 0.05 0.05 0.05 0.05 0.06 0.04 0.03 0.05 0.10 0.10 0.11 0.15 0.20 0.26 0.27 0.25 0.18 0.12 0.07 0.04 0.03 0.02 0.01 0.01 0.01 0.01 0.01
0.02 0.02 0.02 0.03 0.03 0.03 0.03 0.03 0.03 0.03 0.02 0.02 0.04 0.04 0.04 0.03 0.02 0.03 0.02 0.03 0.03 0.03 0.04 0.05 0.08 0.11 0.12 0.12 0.13 0.19 0.26 0.26 0.24 0.18 0.13 0.09 0.07 0.04 0.03 0.02 0.01 0.02 0.02
0.01 0.01 0.02 0.03 0.02 0.02 0.02 0.02 0.02 0.02 0.02 0.02 0.03 0.03 0.03 0.04 0.02 0.02 0.02 0.02 0.02 0.02 0.03 0.03 0.06 0.10 0.11 0.13 0.11 0.11 0.19 0.24 0.27 0.23 0.18 0.15 0.13 0.09 0.06 0.05 0.03 0.03 0.03
0.01 0.00 0.01 0.01 0.01 0.00 0.01 0.02 0.02 0.02 0.02 0.02 0.02 0.02 0.03 0.03 0.03 0.02 0.02 0.02 0.02 0.02 0.02 0.03 0.04 0.06 0.07 0.11 0.12 0.12 0.14 0.17 0.23 0.25 0.24 0.20 0.17 0.14 0.10 0.07 0.05 0.04 0.04
0.00 0.00 0.00 0.00 0.00 0.00 0.00 0.00 0.01 0.01 0.02 0.02 0.02 0.02 0.02 0.02 0.03 0.02 0.02 0.01 0.01 0.01 0.02 0.02 0.02 0.02 0.05 0.09 0.10 0.10 0.11 0.10 0.14 0.22 0.25 0.25 0.21 0.18 0.13 0.10 0.08 0.05 0.03
0.00 0.00 0.00 0.00 0.00 0.00 0.00 0.00 0.00 0.00 0.01 0.01 0.01 0.01 0.01 0.02 0.02 0.02 0.02 0.02 0.01 0.02 0.01 0.01 0.01 0.02 0.03 0.06 0.08 0.08 0.08 0.08 0.09 0.13 0.21 0.26 0.25 0.22 0.19 0.15 0.11 0.08 0.05
0.00 0.00 0.00 0.00 0.00 0.00 0.00 0.00 0.00 0.00 0.00 0.00 0.00 0.00 0.01 0.01 0.01 0.01 0.01 0.02 0.02 0.01 0.01 0.01 0.01 0.01 0.02 0.03 0.04 0.04 0.04 0.07 0.08 0.08 0.11 0.18 0.21 0.21 0.22 0.21 0.17 0.13 0.09
0.00 0.00 0.00 0.00 0.00 0.00 0.00 0.00 0.00 0.00 0.00 0.00 0.00 0.00 0.00 0.00 0.01 0.01 0.01 0.00 0.00 0.00 0.01 0.01 0.01 0.02 0.02 0.02 0.04 0.03 0.02 0.04 0.06 0.08 0.10 0.11 0.14 0.16 0.17 0.21 0.22 0.20 0.16
0.00 0.00 0.00 0.00 0.00 0.00 0.00 0.00 0.00 0.00 0.00 0.00 0.00 0.00 0.00 0.00 0.00 0.00 0.01 0.01 0.00 0.00 0.00 0.00 0.01 0.01 0.01 0.02 0.03 0.03 0.03 0.04 0.05 0.06 0.07 0.08 0.10 0.12 0.13 0.16 0.19 0.20 0.19
0.00 0.00 0.00 0.00 0.00 0.00 0.00 0.00 0.00 0.00 0.00 0.00 0.00 0.00 0.00 0.00 0.00 0.00 0.00 0.01 0.01 0.00 0.00 0.00 0.01 0.01 0.01 0.01 0.02 0.02 0.03 0.03 0.03 0.04 0.05 0.05 0.06 0.08 0.10 0.11 0.13 0.15 0.15
0.00 0.00 0.00 0.00 0.00 0.00 0.00 0.00 0.00 0.00 0.00 0.00 0.00 0.00 0.00 0.00 0.00 0.00 0.00 0.00 0.01 0.01 0.01 0.00 0.00 0.00 0.01 0.01 0.01 0.01 0.02 0.03 0.02 0.03 0.04 0.05 0.05 0.06 0.06 0.07 0.09 0.11 0.13
0.00 0.00 0.00 0.00 0.00 0.00 0.00 0.00 0.00 0.00 0.00 0.00 0.00 0.00 0.00 0.00 0.00 0.00 0.00 0.00 0.00 0.01 0.01 0.00 0.00 0.01 0.01 0.01 0.01 0.01 0.01 0.02 0.03 0.02 0.03 0.04 0.05 0.05 0.05 0.05 0.06 0.07 0.08
0.00 0.00 0.00 0.00 0.00 0.00 0.00 0.00 0.00 0.00 0.00 0.00 0.00 0.00 0.00 0.00 0.00 0.00 0.00 0.00 0.00 0.01 0.01 0.00 0.00 0.00 0.00 0.01 0.01 0.01 0.01 0.01 0.02 0.02 0.02 0.02 0.02 0.03 0.03 0.04 0.04 0.04 0.05
0.00 0.00 0.00 0.00 0.00 0.00 0.00 0.00 0.00 0.00 0.00 0.00 0.00 0.00 0.00 0.00 0.00 0.00 0.00 0.00 0.00 0.00 0.01 0.01 0.00 0.00 0.00 0.00 0.01 0.01 0.01 0.01 0.01 0.01 0.02 0.02 0.02 0.02 0.02 0.03 0.04 0.04 0.04
0.00 0.00 0.00 0.00 0.00 0.00 0.00 0.00 0.00 0.00 0.00 0.00 0.00 0.00 0.00 0.00 0.00 0.00 0.00 0.01 0.01 0.01 0.01 0.01 0.00 0.00 0.00 0.00 0.01 0.01 0.01 0.01 0.01 0.01 0.01 0.02 0.02 0.02 0.02 0.02 0.02 0.03 0.03
0.00 0.00 0.00 0.00 0.00 0.00 0.00 0.00 0.00 0.00 0.00 0.00 0.00 0.00 0.00 0.00 0.00 0.00 0.00 0.00 0.01 0.01 0.01 0.01 0.00 0.00 0.00 0.00 0.01 0.01 0.01 0.01 0.01 0.01 0.02 0.02 0.02 0.03 0.02 0.02 0.02 0.02 0.02
0.00 0.00 0.00 0.00 0.00 0.00 0.00 0.00 0.00 0.00 0.00 0.00 0.00 0.00 0.00 0.00 0.00 0.00 0.00 0.00 0.00 0.00 0.01 0.01 0.01 0.01 0.01 0.01 0.01 0.01 0.01 0.01 0.01 0.02 0.02 0.02 0.03 0.04 0.04 0.03 0.02 0.02 0.02
0.00 0.00 0.00 0.00 0.00 0.00 0.00 0.00 0.00 0.00 0.00 0.00 0.00 0.00 0.00 0.00 0.00 0.00 0.00 0.00 0.00 0.00 0.00 0.00 0.01 0.01 0.01 0.01 0.02 0.02 0.03 0.03 0.02 0.03 0.04 0.03 0.03 0.03 0.02 0.02 0.02 0.01 0.01
0.00 0.00 0.00 0.00 0.00 0.00 0.00 0.00 0.00 0.00 0.00 0.00 0.00 0.00 0.00 0.00 0.00 0.00 0.00 0.00 0.00 0.00 0.00 0.00 0.01 0.01 0.01 0.02 0.03 0.03 0.03 0.04 0.03 0.02 0.03 0.02 0.02 0.02 0.02 0.02 0.01 0.01 0.01
0.00 0.00 0.00 0.00 0.00 0.00 0.00 0.00 0.00 0.00 0.00 0.00 0.00 0.00 0.00 0.00 0.00 0.00 0.00 0.00 0.00 0.01 0.00 0.00 0.00 0.00 0.00 0.00 0.01 0.01 0.02 0.03 0.03 0.03 0.04 0.03 0.02 0.02 0.02 0.02 0.01 0.01 0.01
0.00 0.00 0.00 0.00 0.00 0.00 0.00 0.00 0.00 0.00 0.00 0.00 0.00 0.00 0.00 0.00 0.00 0.00 0.00 0.00 0.01 0.01 0.01 0.01 0.01 0.01 0.01 0.01 0.00 0.01 0.02 0.03 0.04 0.04 0.05 0.05 0.03 0.04 0.03 0.02 0.01 0.01 0.01
MSLP
1016.62 1016.82 1017.01 1017.21 1017.46 1017.77 1018.14 1018.55 1018.95 1019.27 1019.46 1019.50 1019.37 1019.10 1018.76 1018.40 1018.11 1017.93 1017.91 1018.03 1018.28 1018.61 1018.96 1019.30 1019.58 1019.81 1019.99 1020.15 1020.30 1020.47 1020.68 1020.92 1021.20 1021.50 1021.80 1022.10 1022.37 1022.62 1022.86 1023.07 1023.29 1023.50 1023.71
1016.62 1016.81 1016.98 1017.18 1017.42 1017.73 1018.10 1018.51 1018.90 1019.23 1019.43 1019.47 1019.35 1019.09 1018.73 1018.34 1018.00 1017.78 1017.70 1017.77 1017.98 1018.29 1018.64 1019.00 1019.32 1019.58 1019.80 1019.98 1020.15 1020.32 1020.53 1020.77 1021.05 1021.36 1021.67 1021.98 1022.28 1022.56 1022.81 1023.04 1023.26 1023.48 1023.69
1016.62 1016.80 1016.96 1017.14 1017.38 1017.67 1018.02 1018.41 1018.79 1019.10 1019.30 1019.35 1019.23 1018.97 1018.61 1018.22 1017.86 1017.60 1017.48 1017.52 1017.70 1017.99 1018.34 1018.71 1019.05 1019.34 1019.59 1019.78 1019.96 1020.13 1020.33 1020.56 1020.83 1021.13 1021.45 1021.78 1022.10 1022.40 1022.68 1022.94 1023.17 1023.39 1023.61
1016.60 1016.77 1016.92 1017.10 1017.32 1017.59 1017.91 1018.26 1018.61 1018.89 1019.08 1019.12 1019.01 1018.76 1018.42 1018.04 1017.69 1017.43 1017.30 1017.31 1017.48 1017.75 1018.09 1018.46 1018.81 1019.11 1019.35 1019.54 1019.71 1019.86 1020.04 1020.25 1020.50 1020.80 1021.13 1021.47 1021.82 1022.15 1022.45 1022.73 1022.99 1023.24 1023.47
1016.56 1016.72 1016.87 1017.04 1017.25 1017.49 1017.78 1018.09 1018.38 1018.63 1018.78 1018.81 1018.71 1018.48 1018.18 1017.84 1017.52 1017.29 1017.17 1017.19 1017.34 1017.60 1017.92 1018.26 1018.59 1018.87 1019.09 1019.25 1019.38 1019.51 1019.65 1019.83 1020.06 1020.35 1020.68 1021.04 1021.41 1021.77 1022.11 1022.43 1022.73 1023.00 1023.26
1016.51 1016.67 1016.84 1017.01 1017.20 1017.42 1017.66 1017.91 1018.15 1018.34 1018.45 1018.46 1018.37 1018.18 1017.92 1017.64 1017.38 1017.19 1017.10 1017.14 1017.28 1017.52 1017.81 1018.11 1018.39 1018.62 1018.79 1018.90 1018.99 1019.06 1019.16 1019.31 1019.51 1019.79 1020.12 1020.49 1020.88 1021.28 1021.67 1022.03 1022.37 1022.68 1022.97
1016.49 1016.67 1016.85 1017.03 1017.21 1017.40 1017.59 1017.78 1017.95 1018.08 1018.15 1018.14 1018.05 1017.89 1017.69 1017.47 1017.27 1017.14 1017.10 1017.14 1017.28 1017.49 1017.73 1017.98 1018.19 1018.35 1018.45 1018.50 1018.52 1018.54 1018.59 1018.70 1018.88 1019.13 1019.46 1019.85 1020.27 1020.70 1021.13 1021.54 1021.92 1022.27 1022.61
1016.56 1016.76 1016.95 1017.14 1017.31 1017.47 1017.62 1017.75 1017.85 1017.91 1017.92 1017.88 1017.79 1017.66 1017.50 1017.35 1017.22 1017.14 1017.13 1017.19 1017.32 1017.48 1017.67 1017.84 1017.97 1018.05 1018.07 1018.05 1018.00 1017.97 1017.97 1018.04 1018.19 1018.44 1018.76 1019.15 1019.59 1020.06 1020.52 1020.97 1021.40 1021.79 1022.16
1016.75 1016.96 1017.16 1017.35 1017.51 1017.65 1017.75 1017.82 1017.85 1017.85 1017.81 1017.74 1017.64 1017.53 1017.41 1017.30 1017.22 1017.18 1017.19 1017.25 1017.35 1017.46 1017.58 1017.67 1017.71 1017.71 1017.65 1017.56 1017.46 1017.38 1017.34 1017.38 1017.51 1017.74 1018.05 1018.45 1018.90 1019.37 1019.86 1020.34 1020.80 1021.24 1021.64
1017.04 1017.25 1017.46 1017.64 1017.80 1017.91 1017.98 1018.00 1017.98 1017.92 1017.84 1017.73 1017.62 1017.51 1017.41 1017.33 1017.28 1017.25 1017.27 1017.30 1017.36 1017.41 1017.45 1017.46 1017.42 1017.34 1017.21 1017.07 1016.92 1016.80 1016.74 1016.75 1016.86 1017.07 1017.38 1017.76 1018.20 1018.69 1019.18 1019.67 1020.15 1020.60 1021.02
1017.41 1017.61 1017.81 1017.98 1018.12 1018.22 1018.26 1018.24 1018.18 1018.09 1017.97 1017.85 1017.73 1017.61 1017.52 1017.44 1017.40 1017.37 1017.35 1017.35 1017.34 1017.32 1017.28 1017.21 1017.10 1016.95 1016.77 1016.59 1016.41 1016.27 1016.19 1016.19 1016.28 1016.47 1016.75 1017.12 1017.54 1018.00 1018.49 1018.97 1019.45 1019.90 1020.32
1017.79 1017.96 1018.14 1018.30 1018.43 1018.50 1018.53 1018.50 1018.43 1018.32 1018.19 1018.05 1017.92 1017.81 1017.71 1017.63 1017.56 1017.51 1017.45 1017.39 1017.31 1017.22 1017.10 1016.95 1016.77 1016.57 1016.36 1016.14 1015.95 1015.80 1015.71 1015.70 1015.77 1015.94 1016.19 1016.52 1016.91 1017.34 1017.80 1018.26 1018.71 1019.15 1019.56
1018.11 1018.25 1018.39 1018.53 1018.65 1018.72 1018.74 1018.72 1018.65 1018.54 1018.42 1018.29 1018.17 1018.06 1017.96 1017.86 1017.77 1017.67 1017.56 1017.44 1017.29 1017.11 1016.92 1016.70 1016.47 1016.22 1015.98 1015.75 1015.56 1015.40 1015.30 1015.28 1015.33 1015.47 1015.69 1015.98 1016.32 1016.71 1017.12 1017.55 1017.97 1018.37 1018.76
1018.32 1018.42 1018.53 1018.65 1018.75 1018.82 1018.85 1018.84 1018.80 1018.72 1018.63 1018.52 1018.42 1018.32 1018.22 1018.11 1017.99 1017.85 1017.69 1017.50 1017.27 1017.03 1016.76 1016.49 1016.21 1015.93 1015.67 1015.43 1015.23 1015.07 1014.97 1014.93 1014.96 1015.06 1015.24 1015.48 1015.78 1016.12 1016.48 1016.86 1017.24 1017.62 1017.97
1018.39 1018.45 1018.54 1018.63 1018.73 1018.80 1018.85 1018.86 1018.85 1018.81 1018.76 1018.69 1018.62 1018.54 1018.45 1018.33 1018.20 1018.02 1017.81 1017.57 1017.29 1016.98 1016.66 1016.34 1016.02 1015.72 1015.44 1015.19 1014.98 1014.82 1014.70 1014.64 1014.64 1014.71 1014.84 1015.03 1015.28 1015.57 1015.89 1016.23 1016.57 1016.91 1017.23
1018.34 1018.38 1018.44 1018.52 1018.61 1018.69 1018.75 1018.79 1018.81 1018.81 1018.79 1018.77 1018.73 1018.68 1018.60 1018.50 1018.36 1018.16 1017.93 1017.64 1017.32 1016.97 1016.61 1016.26 1015.91 1015.59 1015.30 1015.04 1014.82 1014.64 1014.50 1014.42 1014.38 1014.41 1014.49 1014.63 1014.82 1015.07 1015.34 1015.65 1015.96 1016.27 1016.57
1018.21 1018.24 1018.29 1018.36 1018.44 1018.52 1018.58 1018.64 1018.68 1018.71 1018.73 1018.74 1018.73 1018.71 1018.66 1018.57 1018.44 1018.25 1018.00 1017.70 1017.36 1017.00 1016.62 1016.24 1015.88 1015.54 1015.24 1014.97 1014.73 1014.53 1014.37 1014.25 1014.18 1014.16 1014.19 1014.28 1014.42 1014.61 1014.85 1015.13 1015.42 1015.71 1016.00
1018.06 1018.09 1018.13 1018.20 1018.27 1018.33 1018.40 1018.45 1018.50 1018.54 1018.57 1018.60 1018.62 1018.63 1018.60 1018.54 1018.43 1018.25 1018.02 1017.73 1017.40 1017.04 1016.66 1016.28 1015.91 1015.57 1015.25 1014.97 1014.72 1014.50 1014.30 1014.15 1014.03 1013.96 1013.93 1013.96 1014.06 1014.20 1014.40 1014.65 1014.92 1015.20 1015.48
1017.90 1017.94 1018.00 1018.06 1018.11 1018.16 1018.21 1018.25 1018.28 1018.31 1018.34 1018.38 1018.41 1018.44 1018.44 1018.40 1018.32 1018.18 1017.98 1017.72 1017.41 1017.07 1016.71 1016.34 1015.98 1015.63 1015.31 1015.02 1014.75 1014.50 1014.28 1014.08 1013.92 1013.79 1013.71 1013.68 1013.72 1013.81 1013.96 1014.17 1014.42 1014.69 1014.97
1017.75 1017.82 1017.88 1017.93 1017.98 1018.01 1018.02 1018.03 1018.04 1018.04 1018.06 1018.09 1018.12 1018.16 1018.18 1018.17 1018.12 1018.02 1017.87 1017.65 1017.38 1017.07 1016.74 1016.39 1016.04 1015.70 1015.38 1015.08 1014.80 1014.53 1014.28 1014.04 1013.83 1013.65 1013.50 1013.41 1013.38 1013.41 1013.50 1013.66 1013.88 1014.13 1014.40
1017.59 1017.67 1017.74 1017.79 1017.82 1017.83 1017.82 1017.79 1017.76 1017.74 1017.73 1017.74 1017.77 1017.81 1017.85 1017.87 1017.86 1017.80 1017.69 1017.52 1017.30 1017.03 1016.72 1016.40 1016.07 1015.74 1015.42 1015.12 1014.82 1014.53 1014.25 1013.98 1013.73 1013.49 1013.29 1013.12 1013.02 1012.97 1013.00 1013.09 1013.26 1013.47 1013.73
1017.38 1017.47 1017.54 1017.59 1017.61 1017.59 1017.56 1017.50 1017.44 1017.39 1017.37 1017.36 1017.39 1017.43 1017.48 1017.53 1017.55 1017.53 1017.46 1017.33 1017.15 1016.92 1016.64 1016.34 1016.03 1015.71 1015.39 1015.08 1014.78 1014.48 1014.18 1013.88 1013.59 1013.30 1013.04 1012.80 1012.61 1012.49 1012.43 1012.45 1012.54 1012.70 1012.92
1017.06 1017.16 1017.23 1017.27 1017.28 1017.26 1017.20 1017.14 1017.06 1017.00 1016.96 1016.95 1016.97 1017.02 1017.09 1017.16 1017.20 1017.21 1017.18 1017.08 1016.92 1016.72 1016.46 1016.18 1015.87 1015.56 1015.25 1014.93 1014.63 1014.32 1014.01 1013.70 1013.37 1013.05 1012.73 1012.43 1012.17 1011.96 1011.81 1011.74 1011.75 1011.84 1012.00
1016.62 1016.71 1016.77 1016.81 1016.82 1016.79 1016.74 1016.68 1016.61 1016.55 1016.51 1016.51 1016.54 1016.60 1016.67 1016.75 1016.82 1016.84 1016.82 1016.74 1016.60 1016.40 1016.16 1015.87 1015.57 1015.26 1014.95 1014.64 1014.34 1014.04 1013.73 1013.41 1013.07 1012.72 1012.37 1012.01 1011.69 1011.40 1011.16 1011.00 1010.92 1010.93 1011.01
1016.04 1016.12 1016.18 1016.21 1016.23 1016.22 1016.18 1016.14 1016.09 1016.05 1016.03 1016.04 1016.08 1016.14 1016.23 1016.31 1016.37 1016.40 1016.38 1016.29 1016.15 1015.95 1015.70 1015.42 1015.11 1014.80 1014.49 1014.19 1013.90 1013.61 1013.31 1013.00 1012.66 1012.31 1011.94 1011.56 1011.19 1010.84 1010.53 1010.29 1010.12 1010.03 1010.03
1015.37 1015.43 1015.48 1015.52 1015.55 1015.56 1015.55 1015.53 1015.51 1015.50 1015.50 1015.52 1015.57 1015.64 1015.72 1015.79 1015.84 1015.85 1015.81 1015.71 1015.55 1015.34 1015.08 1014.79 1014.48 1014.17 1013.87 1013.58 1013.30 1013.03 1012.76 1012.48 1012.17 1011.83 1011.47 1011.08 1010.69 1010.31 1009.95 1009.64 1009.39 1009.22 1009.13
Thickness
5734 5732 5730 5729 5728 5727 5726 5725 5724 5724 5723 5723 5723 5723 5723 5724 5725 5726 5727 5724 5722 5722 5721 5721 5720 5719 5718 5718 5717 5717 5717 5717 5717 5717 5717 5717 5716 5715 5714 5714 5713 5712 5711
5730 5729 5728 5726 5726 5725 5724 5723 5722 5721 5721 5721 5721 5720 5720 5721 5721 5721 5723 5724 5721 5721 5720 5720 5719 5718 5717 5716 5716 5715 5715 5715 5715 5715 5715 5715 5715 5714 5713 5713 5712 5711 5710
5727 5726 5726 5725 5724 5723 5721 5721 5720 5720 5719 5720 5719 5719 5718 5718 5718 5718 5720 5721 5722 5720 5720 5719 5718 5717 5716 5715 5715 5714 5714 5713 5713 5713 5714 5714 5714 5713 5713 5712 5711 5710 5710
5724 5724 5723 5722 5721 5721 5720 5719 5719 5718 5718 5717 5717 5717 5717 5716 5716 5716 5717 5718 5719 5720 5720 5718 5717 5716 5715 5715 5714 5713 5712 5712 5712 5712 5712 5712 5712 5712 5712 5711 5710 5710 5709
5722 5722 5720 5719 5718 5719 5718 5718 5718 5716 5715 5714 5716 5716 5716 5716 5715 5715 5716 5716 5716 5716 5718 5717 5716 5715 5714 5713 5712 5711 5711 5711 5711 5710 5710 5710 5710 5711 5710 5710 5710 5709 5708
5719 5719 5718 5715 5716 5716 5715 5713 5712 5711 5711 5711 5714 5715 5715 5715 5714 5715 5714 5715 5714 5715 5716 5717 5716 5715 5713 5712 5711 5710 5710 5710 5709 5709 5709 5709 5709 5709 5709 5709 5709 5708 5708
5717 5716 5717 5713 5713 5713 5710 5711 5709 5709 5709 5709 5709 5711 5714 5715 5714 5713 5713 5712 5713 5712 5713 5713 5713 5713 5713 5711 5710 5710 5709 5708 5707 5708 5708 5707 5707 5708 5708 5708 5708 5708 5707
5714 5714 5712 5712 5710 5708 5707 5706 5704 5705 5706 5705 5703 5703 5704 5707 5708 5711 5710 5709 5709 5709 5710 5710 5710 5709 5709 5711 5711 5709 5708 5707 5707 5706 5706 5706 5706 5706 5706 5706 5706 5707 5706
5711 5709 5709 5709 5706 5707 5705 5702 5701 5700 5700 5701 5700 5699 5697 5698 5701 5705 5704 5704 5704 5704 5706 5707 5706 5706 5706 5707 5708 5707 5706 5706 5706 5705 5705 5705 5705 5705 5705 5705 5705 5705 5706
5708 5706 5705 5704 5703 5704 5700 5701 5699 5697 5695 5696 5696 5694 5693 5693 5690 5694 5698 5700 5699 5699 5700 5702 5703 5703 5703 5703 5704 5704 5704 5703 5703 5704 5704 5704 5704 5704 5704 5704 5704 5704 5705
5705 5704 5702 5701 5699 5699 5696 5694 5693 5692 5693 5692 5692 5691 5690 5688 5688 5685 5686 5690 5693 5696 5696 5697 5697 5698 5699 5699 5699 5700 5700 5700 5700 5701 5701 5702 5702 5703 5703 5703 5702 5703 5703
5704 5702 5700 5698 5696 5695 5692 5690 5688 5688 5686 5684 5684 5685 5684 5683 5682 5682 5680 5681 5684 5688 5690 5691 5692 5693 5694 5695 5694 5694 5694 5695 5696 5697 5698 5699 5700 5700 5701 5702 5702 5702 5702
5704 5698 5698 5695 5693 5690 5688 5686 5684 5683 5682 5679 5678 5679 5679 5678 5677 5675 5674 5675 5676 5681 5683 5686 5688 5687 5688 5688 5687 5686 5688 5690 5691 5692 5694 5695 5696 5698 5699 5700 5700 5701 5701
5702 5697 5694 5691 5689 5686 5685 5682 5683 5680 5677 5675 5674 5671 5671 5672 5671 5670 5668 5667 5667 5672 5676 5678 5680 5681 5680 5680 5679 5679 5683 5684 5685 5686 5688 5690 5692 5694 5695 5697 5698 5699 5700
5698 5694 5691 5689 5686 5683 5681 5679 5679 5674 5673 5672 5671 5669 5667 5667 5665 5664 5663 5661 5658 5658 5663 5668 5670 5672 5671 5671 5671 5672 5675 5677 5678 5680 5682 5684 5687 5688 5690 5692 5695 5696 5697
5694 5691 5689 5686 5683 5681 5678 5675 5675 5672 5669 5667 5664 5661 5659 5661 5660 5658 5657 5656 5654 5651 5652 5658 5659 5663 5662 5661 5664 5665 5667 5669 5671 5674 5677 5679 5681 5683 5685 5687 5689 5692 5694
5691 5688 5686 5683 5681 5678 5675 5672 5672 5668 5665 5663 5661 5658 5655 5652 5652 5652 5651 5650 5648 5647 5645 5649 5652 5654 5652 5651 5654 5657 5660 5663 5667 5668 5670 5672 5674 5677 5679 5682 5684 5686 5689
5689 5686 5684 5681 5679 5676 5673 5670 5667 5666 5663 5660 5657 5654 5651 5650 5646 5645 5644 5643 5642 5639 5637 5637 5641 5644 5644 5645 5646 5648 5653 5658 5660 5663 5663 5665 5667 5670 5673 5675 5678 5681 5683
5687 5685 5682 5679 5677 5674 5671 5667 5665 5662 5659 5656 5653 5650 5647 5644 5641 5641 5637 5637 5636 5636 5633 5632 5634 5636 5637 5639 5639 5642 5646 5648 5651 5656 5657 5659 5661 5663 5666 5669 5672 5675 5677
5686 5683 5680 5677 5674 5672 5669 5666 5662 5659 5656 5653 5650 5647 5644 5641 5637 5634 5632 5630 5629 5627 5627 5626 5628 5630 5630 5632 5632 5634 5638 5642 5644 5648 5651 5654 5655 5656 5659 5662 5665 5668 5671
5685 5681 5678 5675 5673 5670 5668 5664 5659 5657 5654 5650 5648 5645 5642 5638 5633 5628 5627 5626 5623 5621 5621 5621 5621 5622 5623 5622 5623 5626 5628 5631 5636 5639 5642 5647 5650 5653 5655 5656 5659 5662 5665
5682 5679 5676 5673 5671 5670 5663 5656 5652 5652 5651 5648 5645 5642 5640 5635 5630 5623 5619 5615 5611 5611 5612 5611 5612 5612 5611 5612 5613 5614 5616 5620 5623 5631 5632 5636 5641 5645 5649 5652 5656 5657 5658
5680 5677 5674 5671 5669 5666 5659 5653 5648 5646 5647 5645 5642 5639 5637 5637 5628 5625 5619 5612 5608 5604 5600 5600 5602 5602 5603 5604 5602 5603 5605 5607 5611 5617 5618 5623 5630 5635 5641 5647 5648 5650 5651
5678 5675 5672 5669 5666 5663 5657 5651 5645 5643 5644 5643 5640 5637 5633 5629 5626 5620 5616 5613 5610 5608 5603 5597 5597 5596 5596 5594 5593 5592 5593 5597 5601 5606 5609 5612 5620 5626 5633 5638 5641 5643 5644
5676 5673 5670 5667 5663 5660 5655 5648 5641 5643 5643 5641 5638 5635 5631 5626 5621 5612 5608 5606 5605 5604 5601 5597 5593 5590 5587 5584 5582 5582 5586 5589 5594 5601 5605 5605 5611 5617 5623 5629 5634 5636 5638
5674 5671 5669 5666 5662 5659 5654 5646 5639 5641 5642 5640 5638 5635 5628 5622 5616 5607 5603 5602 5600 5599 5596 5594 5588 5585 5583 5581 5578 5575 5579 5582 5586 5591 5597 5597 5602 5606 5611 5621 5627 5631 5632